VCV704 SVMI-SVMG

Flight info

Callsign VCV704
Flight time 0h 35m
Altitude 21000
Route SVMI OSMAR2 OSMAR DCT DALSI W19 CHALO DCT VAREX SVMG
Aircraft A319/M-SDE3FGHIRWY/LB1

Departure

Time 2026-05-07 14:36
Airport Maiquetía Simón Bolívar International Airport (SVMI)

Arrival

Time 2026-05-07 15:11
Airport Del Caribe Santiago Mariño International Airport (SVMG)
Time Latitude Longitude Altitude Speed Heading
2026-05-07 14:04 10.59814 -67.00842 235 ft 0 kts 178°
2026-05-07 14:22 10.59817 -67.00842 234 ft 1 kts 178°
2026-05-07 14:22 10.59835 -67.00843 235 ft 3 kts 178°
2026-05-07 14:22 10.59855 -67.00843 238 ft 3 kts 178°
2026-05-07 14:23 10.59875 -67.00844 237 ft 3 kts 178°
2026-05-07 14:23 10.59894 -67.00842 235 ft 3 kts 215°
2026-05-07 14:23 10.59906 -67.00828 235 ft 3 kts 252°
2026-05-07 14:23 10.59910 -67.00812 234 ft 1 kts 268°
2026-05-07 14:24 10.59910 -67.00811 234 ft 0 kts 268°
2026-05-07 14:28 10.59909 -67.00835 236 ft 4 kts 268°
2026-05-07 14:28 10.59908 -67.00866 236 ft 5 kts 268°
2026-05-07 14:28 10.59907 -67.00906 235 ft 7 kts 268°
2026-05-07 14:28 10.59905 -67.00958 236 ft 8 kts 268°
2026-05-07 14:29 10.59902 -67.01020 237 ft 9 kts 268°
2026-05-07 14:29 10.59901 -67.01092 239 ft 11 kts 269°
2026-05-07 14:29 10.59900 -67.01169 240 ft 11 kts 269°
2026-05-07 14:29 10.59927 -67.01231 241 ft 11 kts 343°
2026-05-07 14:30 10.60005 -67.01240 241 ft 12 kts 355°
2026-05-07 14:30 10.60095 -67.01244 241 ft 14 kts 358°
2026-05-07 14:30 10.60202 -67.01248 238 ft 17 kts 358°
2026-05-07 14:30 10.60277 -67.01251 239 ft 2 kts 358°
2026-05-07 14:31 10.60281 -67.01251 239 ft 0 kts 358°
2026-05-07 14:34 10.60284 -67.01251 212 ft 2 kts 358°
2026-05-07 14:34 10.60308 -67.01252 221 ft 5 kts 357°
2026-05-07 14:34 10.60355 -67.01254 209 ft 9 kts
2026-05-07 14:35 10.60381 -67.01217 214 ft 0 kts 87°
2026-05-07 14:35 10.60383 -67.01190 214 ft 19 kts 86°
2026-05-07 14:35 10.60398 -67.00734 204 ft 107 kts 88°
2026-05-07 14:35 10.60427 -66.99732 337 ft 162 kts 88°
2026-05-07 14:36 10.60441 -66.98968 850 ft 165 kts 88°
2026-05-07 14:36 10.60817 -66.97440 2035 ft 170 kts 71°
2026-05-07 14:36 10.61067 -66.96658 2409 ft 175 kts 73°
2026-05-07 14:36 10.61575 -66.95004 2885 ft 197 kts 75°
2026-05-07 14:37 10.61993 -66.93581 3200 ft 222 kts 75°
2026-05-07 14:37 10.62824 -66.90839 3949 ft 261 kts 74°
2026-05-07 14:37 10.63367 -66.89047 4801 ft 268 kts 75°
2026-05-07 14:38 10.63915 -66.87228 5757 ft 271 kts 75°
2026-05-07 14:38 10.64465 -66.85393 6713 ft 273 kts 75°
2026-05-07 14:38 10.65018 -66.83539 7631 ft 275 kts 75°
2026-05-07 14:38 10.65565 -66.81691 8498 ft 277 kts 75°
2026-05-07 14:39 10.66156 -66.79687 9432 ft 281 kts 75°
2026-05-07 14:39 10.66720 -66.77774 10240 ft 286 kts 75°
2026-05-07 14:39 10.67314 -66.75756 10532 ft 309 kts 75°
2026-05-07 14:39 10.67940 -66.73626 11054 ft 319 kts 74°
2026-05-07 14:40 10.68583 -66.71454 11760 ft 322 kts 74°
2026-05-07 14:40 10.69233 -66.69262 12486 ft 325 kts 73°
2026-05-07 14:40 10.69889 -66.67053 13214 ft 328 kts 73°
2026-05-07 14:40 10.70546 -66.64841 13926 ft 330 kts 73°
2026-05-07 14:41 10.71210 -66.62601 14536 ft 333 kts 73°
2026-05-07 14:41 10.71879 -66.60331 15112 ft 337 kts 73°
2026-05-07 14:41 10.72554 -66.58032 15677 ft 342 kts 73°
2026-05-07 14:41 10.73241 -66.55703 16260 ft 346 kts 73°
2026-05-07 14:42 10.73922 -66.53345 16837 ft 350 kts 74°
2026-05-07 14:42 10.74597 -66.50950 17423 ft 354 kts 74°
2026-05-07 14:42 10.75275 -66.48528 17984 ft 359 kts 74°
2026-05-07 14:42 10.75962 -66.46068 18492 ft 365 kts 74°
2026-05-07 14:43 10.76663 -66.43568 18953 ft 370 kts 74°
2026-05-07 14:43 10.77379 -66.41022 19432 ft 375 kts 74°
2026-05-07 14:43 10.78100 -66.38462 19908 ft 379 kts 74°
2026-05-07 14:43 10.78832 -66.35871 20388 ft 383 kts 74°
2026-05-07 14:44 10.79575 -66.33250 20858 ft 388 kts 74°
2026-05-07 14:44 10.80328 -66.30600 21315 ft 392 kts 74°
2026-05-07 14:44 10.81087 -66.27916 21781 ft 396 kts 74°
2026-05-07 14:44 10.81848 -66.25210 22215 ft 400 kts 74°
2026-05-07 14:45 10.82617 -66.22474 22657 ft 404 kts 74°
2026-05-07 14:45 10.83394 -66.19711 23089 ft 408 kts 74°
2026-05-07 14:45 10.84179 -66.16922 23524 ft 412 kts 73°
2026-05-07 14:45 10.84966 -66.14121 23889 ft 416 kts 74°
2026-05-07 14:46 10.85776 -66.11237 24239 ft 420 kts 73°
2026-05-07 14:46 10.86574 -66.08401 24578 ft 424 kts 73°
2026-05-07 14:46 10.87389 -66.05509 24931 ft 427 kts 73°
2026-05-07 14:46 10.88212 -66.02596 25288 ft 430 kts 73°
2026-05-07 14:47 10.89044 -65.99648 25653 ft 433 kts 74°
2026-05-07 14:47 10.89685 -65.96644 25994 ft 436 kts 83°
2026-05-07 14:47 10.89834 -65.93556 26328 ft 439 kts 91°
2026-05-07 14:47 10.89808 -65.90436 26657 ft 443 kts 91°
2026-05-07 14:48 10.89788 -65.87293 26950 ft 446 kts 91°
2026-05-07 14:48 10.89773 -65.84158 27026 ft 440 kts 91°
2026-05-07 14:48 10.89762 -65.81100 27040 ft 425 kts 91°
2026-05-07 14:48 10.89753 -65.78124 27038 ft 412 kts 91°
2026-05-07 14:49 10.89744 -65.75236 27038 ft 405 kts 91°
2026-05-07 14:49 10.89732 -65.72377 27036 ft 403 kts 91°
2026-05-07 14:49 10.89716 -65.69526 27037 ft 403 kts 91°
2026-05-07 14:49 10.89698 -65.66678 27037 ft 402 kts 91°
2026-05-07 14:50 10.89681 -65.63837 27037 ft 402 kts 91°
2026-05-07 14:50 10.89666 -65.60972 27037 ft 402 kts 91°
2026-05-07 14:50 10.89649 -65.58138 27037 ft 402 kts 91°
2026-05-07 14:50 10.89633 -65.55293 27038 ft 402 kts 91°
2026-05-07 14:51 10.89619 -65.52435 26794 ft 407 kts 91°
2026-05-07 14:51 10.89603 -65.49537 26267 ft 410 kts 91°
2026-05-07 14:51 10.89587 -65.46644 25849 ft 409 kts 91°
2026-05-07 14:51 10.89572 -65.43751 25405 ft 408 kts 91°
2026-05-07 14:52 10.89557 -65.40853 24956 ft 408 kts 91°
2026-05-07 14:52 10.89542 -65.37976 24503 ft 407 kts 91°
2026-05-07 14:52 10.89527 -65.35100 24043 ft 406 kts 91°
2026-05-07 14:52 10.89512 -65.32228 23587 ft 405 kts 91°
2026-05-07 14:53 10.89506 -65.29366 23085 ft 403 kts 90°
2026-05-07 14:53 10.89533 -65.26532 22653 ft 399 kts 90°
2026-05-07 14:53 10.89582 -65.23721 22237 ft 395 kts 89°
2026-05-07 14:53 10.89640 -65.20934 21765 ft 392 kts 89°
2026-05-07 14:54 10.89698 -65.18181 21329 ft 388 kts 89°
2026-05-07 14:54 10.89755 -65.15451 20885 ft 384 kts 89°
2026-05-07 14:54 10.89805 -65.12745 20451 ft 380 kts 89°
2026-05-07 14:54 10.89848 -65.10072 20020 ft 376 kts 89°
2026-05-07 14:55 10.89888 -65.07422 19591 ft 373 kts 90°
2026-05-07 14:55 10.89927 -65.04798 19165 ft 369 kts 90°
2026-05-07 14:55 10.89965 -65.02195 18741 ft 366 kts 90°
2026-05-07 14:55 10.90003 -64.99622 18313 ft 363 kts 90°
2026-05-07 14:56 10.90041 -64.97068 17854 ft 359 kts 90°
2026-05-07 14:56 10.90078 -64.94550 17438 ft 354 kts 89°
2026-05-07 14:56 10.90117 -64.92061 17025 ft 348 kts 89°
2026-05-07 14:56 10.90154 -64.89592 16617 ft 343 kts 89°
2026-05-07 14:57 10.90189 -64.87184 16221 ft 338 kts 89°
2026-05-07 14:57 10.90223 -64.84804 15826 ft 334 kts 88°
2026-05-07 14:57 10.90258 -64.82457 15444 ft 330 kts 88°
2026-05-07 14:57 10.90293 -64.80138 15061 ft 326 kts 88°
2026-05-07 14:58 10.90329 -64.77846 14684 ft 322 kts 88°
2026-05-07 14:58 10.90364 -64.75579 14309 ft 319 kts 88°
2026-05-07 14:58 10.90399 -64.73342 13930 ft 315 kts 88°
2026-05-07 14:58 10.90432 -64.71126 13530 ft 312 kts 88°
2026-05-07 14:59 10.90462 -64.68932 13152 ft 308 kts 88°
2026-05-07 14:59 10.90492 -64.66764 12786 ft 304 kts 88°
2026-05-07 14:59 10.90521 -64.64613 12417 ft 301 kts 88°
2026-05-07 14:59 10.90547 -64.62494 12055 ft 298 kts 88°
2026-05-07 15:00 10.90573 -64.60394 11692 ft 296 kts 89°
2026-05-07 15:00 10.90602 -64.58309 11326 ft 294 kts 89°
2026-05-07 15:00 10.90631 -64.56236 10967 ft 292 kts 89°
2026-05-07 15:00 10.90660 -64.54177 10604 ft 290 kts 89°
2026-05-07 15:01 10.90688 -64.52130 10250 ft 289 kts 89°
2026-05-07 15:01 10.90717 -64.50085 9895 ft 288 kts 90°
2026-05-07 15:01 10.90743 -64.48065 9521 ft 286 kts 90°
2026-05-07 15:01 10.90769 -64.46033 9146 ft 284 kts 90°
2026-05-07 15:02 10.90794 -64.44057 8789 ft 282 kts 90°
2026-05-07 15:02 10.90821 -64.42047 8431 ft 280 kts 90°
2026-05-07 15:02 10.90848 -64.40101 8083 ft 278 kts 90°
2026-05-07 15:02 10.90830 -64.38118 7725 ft 275 kts 96°
2026-05-07 15:03 10.90661 -64.36233 7556 ft 267 kts 96°
2026-05-07 15:03 10.90496 -64.34312 7079 ft 271 kts 96°
2026-05-07 15:03 10.90336 -64.32399 6701 ft 271 kts 96°
2026-05-07 15:03 10.90182 -64.30515 6350 ft 271 kts 96°
2026-05-07 15:04 10.90025 -64.28601 5987 ft 269 kts 96°
2026-05-07 15:04 10.89871 -64.26729 5637 ft 259 kts 96°
2026-05-07 15:04 10.89724 -64.24939 5313 ft 249 kts 96°
2026-05-07 15:04 10.89582 -64.23215 4994 ft 240 kts 96°
2026-05-07 15:05 10.89445 -64.21550 4649 ft 232 kts 96°
2026-05-07 15:05 10.89312 -64.19953 4338 ft 220 kts 96°
2026-05-07 15:05 10.89138 -64.18449 4055 ft 208 kts 98°
2026-05-07 15:05 10.88946 -64.17045 3793 ft 198 kts 98°
2026-05-07 15:06 10.88817 -64.16128 3673 ft 190 kts 98°
2026-05-07 15:06 10.88575 -64.14403 3305 ft 181 kts 98°
2026-05-07 15:06 10.88402 -64.13183 3065 ft 168 kts 98°
2026-05-07 15:06 10.88240 -64.12039 2850 ft 159 kts 96°
2026-05-07 15:07 10.88345 -64.10939 2651 ft 155 kts 79°
2026-05-07 15:07 10.88566 -64.09871 2426 ft 152 kts 81°
2026-05-07 15:07 10.88706 -64.09181 2293 ft 149 kts 81°
2026-05-07 15:07 10.88915 -64.08148 2093 ft 149 kts 81°
2026-05-07 15:08 10.89124 -64.07124 1885 ft 148 kts 79°
2026-05-07 15:08 10.89334 -64.06087 1692 ft 151 kts 81°
2026-05-07 15:08 10.89544 -64.05060 1484 ft 144 kts 79°
2026-05-07 15:08 10.89740 -64.04105 1296 ft 131 kts 81°
2026-05-07 15:09 10.89919 -64.03238 1121 ft 122 kts 79°
2026-05-07 15:09 10.90092 -64.02386 965 ft 126 kts 79°
2026-05-07 15:09 10.90281 -64.01506 835 ft 127 kts 79°
2026-05-07 15:09 10.90466 -64.00631 694 ft 124 kts 79°
2026-05-07 15:10 10.90630 -63.99789 483 ft 119 kts 78°
2026-05-07 15:10 10.90795 -63.98978 303 ft 115 kts 78°
2026-05-07 15:10 10.90948 -63.98206 133 ft 108 kts 79°
2026-05-07 15:10 10.91084 -63.97537 71 ft 83 kts 79°
2026-05-07 15:11 10.91179 -63.97071 65 ft 53 kts 78°
2026-05-07 15:11 10.91239 -63.96779 57 ft 33 kts 78°
2026-05-07 15:11 10.91285 -63.96560 58 ft 28 kts 78°
2026-05-07 15:11 10.91343 -63.96465 52 ft 16 kts
2026-05-07 15:12 10.91412 -63.96474 59 ft 5 kts 349°
2026-05-07 15:12 10.91429 -63.96477 59 ft 2 kts 347°
2026-05-07 15:12 10.91443 -63.96481 60 ft 2 kts 346°
2026-05-07 15:12 10.91461 -63.96486 60 ft 3 kts 345°
2026-05-07 15:13 10.91502 -63.96497 60 ft 9 kts 345°
2026-05-07 15:13 10.91570 -63.96529 54 ft 12 kts 304°
2026-05-07 15:13 10.91562 -63.96619 58 ft 14 kts 257°
2026-05-07 15:13 10.91541 -63.96716 60 ft 14 kts 257°
2026-05-07 15:14 10.91525 -63.96798 60 ft 11 kts 258°
2026-05-07 15:14 10.91517 -63.96835 60 ft 3 kts 257°
2026-05-07 15:14 10.91517 -63.96856 61 ft 1 kts 313°
2026-05-07 15:14 10.91541 -63.96860 60 ft 4 kts 351°
2026-05-07 15:15 10.91576 -63.96867 60 ft 4 kts 347°
2026-05-07 15:15 10.91584 -63.96869 60 ft 0 kts 347°